Weather reports worldwide

Advertisment
High Wycombe, United Kingdom (3660): temperature & dewpoint: 10.06.2019 12:00:00 - 16.06.2019 12:00:00 (BST)High Wycombe, United Kingdom (3660): wind speed & gusts: 10.06.2019 12:00:00 - 16.06.2019 12:00:00 (BST)High Wycombe, United Kingdom (3660): wind direction: 10.06.2019 12:00:00 - 16.06.2019 12:00:00 (BST)High Wycombe, United Kingdom (3660): reduced air pressure: 10.06.2019 12:00:00 - 16.06.2019 12:00:00 (BST)High Wycombe, United Kingdom (3660): visibility: 10.06.2019 12:00:00 - 16.06.2019 12:00:00 (BST)High Wycombe, United Kingdom (3660): precipitation: 10.06.2019 12:00:00 - 16.06.2019 12:00:00 (BST)
Date & Time tt [°C] td [°C] ff [km/h] ff [kn] fx [km/h] fx [kn] dd ppp [hPa] vv [km] rr [mm]
16.06.2019 12:00:00 13,5 12,2 13 7 - - SW 1015,7 2,4 1,2
16.06.2019 11:00:00 14,3 12,1 13 7 - - SW 1015,5 26 0,0
16.06.2019 10:00:00 12,9 12,6 13 7 - - SSW 1015,6 13 0,4
16.06.2019 09:00:00 11,8 11,3 11 6 - - S 1015,8 3,6 0,4
16.06.2019 08:00:00 11,2 10,9 8 4 - - S 1015,6 9 0,0
16.06.2019 07:00:00 10,2 10,0 8 4 - - S 1015,6 6 0,0
16.06.2019 06:00:00 9,9 9,7 8 4 - - SSW 1015,5 7 0,0
16.06.2019 05:00:00 9,5 9,3 9 5 - - SSW 1015,5 9 0,0
16.06.2019 04:00:00 9,2 9,0 11 6 - - SW 1015,3 9 0,0
16.06.2019 03:00:00 8,7 8,3 9 5 - - SSW 1015,4 12 0,0
16.06.2019 02:00:00 9,1 8,0 8 4 - - SSW 1015,1 21 0,0
16.06.2019 01:00:00 9,5 7,9 9 5 - - SSW 1015,0 29 0,0
16.06.2019 00:00:00 10,2 8,2 9 5 - - SW 1014,7 40 0,0
15.06.2019 23:00:00 10,6 8,7 5 3 - - SSW 1014,3 40 0,0
15.06.2019 22:00:00 10,9 7,9 4 2 - - WSW 1013,9 35 0,0
15.06.2019 21:00:00 13,1 8,7 11 6 - - SSW 1013,1 40 0,0
15.06.2019 20:00:00 14,0 9,8 13 7 - - SSW 1012,7 26 0,0
15.06.2019 19:00:00 15,6 10,5 15 8 - - SSW 1012,2 35 0,0
15.06.2019 18:00:00 15,1 10,4 18 10 - - SSW 1012,2 30 0,0
15.06.2019 17:00:00 15,6 11,1 16 9 - - SSW 1012,0 29 0,0
15.06.2019 16:00:00 13,8 12,0 16 9 - - S 1012,5 30 0,6
15.06.2019 15:00:00 13,5 11,4 15 8 - - S 1012,5 6 0,0
15.06.2019 14:00:00 13,6 12,0 11 6 - - SSW 1012,6 13 0,2
15.06.2019 13:00:00 14,5 9,3 16 9 - - SSW 1012,4 19 0,0
15.06.2019 12:00:00 15,9 9,7 16 9 - - SSW 1011,8 45 0,0
15.06.2019 11:00:00 15,2 9,9 16 9 - - SSW 1011,8 40 0,0
15.06.2019 10:00:00 13,4 10,2 9 5 - - SW 1012,0 25 0,0
15.06.2019 09:00:00 12,9 10,4 15 8 - - SSW 1012,0 25 0,0
15.06.2019 08:00:00 12,1 10,4 9 5 - - S 1012,0 27 0,0
15.06.2019 07:00:00 11,0 9,6 9 5 - - S 1012,1 23 0,0
15.06.2019 06:00:00 9,8 9,3 9 5 - - S 1012,2 22 0,0
15.06.2019 05:00:00 9,8 9,0 9 5 - - S 1012,1 18 0,0
15.06.2019 04:00:00 9,9 9,0 11 6 - - S 1011,8 25 0,0
15.06.2019 03:00:00 10,0 8,8 9 5 - - SSW 1012,0 28 0,0
15.06.2019 02:00:00 9,6 8,5 5 3 - - SSE 1012,3 30 0,0
15.06.2019 01:00:00 9,9 8,2 9 5 - - S 1012,3 26 0,0
15.06.2019 00:00:00 10,6 8,3 9 5 - - SSW 1012,3 35 0,0
14.06.2019 23:00:00 11,1 8,3 8 4 - - S 1012,0 35 0,0
14.06.2019 22:00:00 11,9 8,9 9 5 - - S 1012,0 35 0,0
14.06.2019 21:00:00 13,3 8,3 9 5 - - SSW 1011,3 45 0,0
14.06.2019 20:00:00 14,6 8,1 11 6 - - SW 1010,8 35 0,0
14.06.2019 19:00:00 14,7 8,1 16 9 - - SSW 1010,6 40 0,0
14.06.2019 18:00:00 15,4 9,3 15 8 - - SSW 1010,4 30 0,0
14.06.2019 17:00:00 16,2 9,4 18 10 - - SW 1010,2 35 0,0
14.06.2019 16:00:00 16,3 9,6 18 10 - - SSW 1010,2 35 0,0
14.06.2019 15:00:00 16,7 11,0 22 12 - - SSW 1010,0 35 0,0
14.06.2019 14:00:00 16,8 11,4 16 9 - - SSW 1009,6 25 0,0
14.06.2019 13:00:00 15,1 12,3 15 8 - - SSW 1009,7 13 0,4
14.06.2019 12:00:00 13,4 10,7 13 7 - - SSW 1009,9 5 0,2
14.06.2019 11:00:00 14,2 11,7 13 7 - - SSW 1009,5 24 0,0
14.06.2019 10:00:00 12,4 10,9 15 8 - - SW 1009,5 19 0,0
14.06.2019 09:00:00 11,6 11,0 16 9 - - SSW 1009,1 19 0,0
14.06.2019 08:00:00 11,4 11,1 15 8 - - SSW 1008,6 17 0,2
14.06.2019 07:00:00 11,0 10,8 15 8 - - S 1008,3 10 0,0
14.06.2019 06:00:00 10,9 10,8 13 7 - - SSW 1008,3 9 1,0
14.06.2019 05:00:00 10,8 10,7 11 6 - - SSW 1008,1 4,9 1,6
14.06.2019 04:00:00 10,7 10,7 11 6 - - SW 1007,9 6 1,2
14.06.2019 03:00:00 10,3 10,2 8 4 - - SSW 1008,0 5 0,0
14.06.2019 02:00:00 10,0 9,8 9 5 - - SSW 1008,3 23 0,0
14.06.2019 01:00:00 10,1 9,9 8 4 - - SSW 1008,4 17 0,0
14.06.2019 00:00:00 10,3 10,0 8 4 - - SW 1008,1 24 0,0
13.06.2019 23:00:00 10,7 10,4 13 7 - - SW 1007,9 30 0,0
13.06.2019 22:00:00 10,9 10,5 13 7 - - SW 1007,4 26 0,2
13.06.2019 21:00:00 11,3 10,9 9 5 - - W 1006,5 3,6 0,8
13.06.2019 20:00:00 11,8 10,9 13 7 - - SW 1005,5 18 0,0
13.06.2019 19:00:00 11,7 10,9 13 7 - - SSW 1005,0 50 0,0
13.06.2019 18:00:00 11,5 10,7 16 9 - - SW 1004,8 50 0,0
13.06.2019 17:00:00 11,5 11,0 13 7 - - SW 1004,7 11 0,2
13.06.2019 16:00:00 11,4 10,9 16 9 - - SW 1004,6 3,2 0,2
13.06.2019 15:00:00 11,9 11,3 15 8 - - SSW 1004,5 16 0,2
13.06.2019 14:00:00 11,2 10,7 13 7 - - SSW 1004,7 9 0,4
13.06.2019 13:00:00 11,0 10,3 16 9 - - SW 1004,7 9 0,6
13.06.2019 12:00:00 11,4 10,4 13 7 - - SSW 1004,6 17 0,4
13.06.2019 11:00:00 11,4 10,8 15 8 - - SSW 1004,5 15 0,8
13.06.2019 10:00:00 10,9 10,2 15 8 - - SSW 1004,3 17 0,0
13.06.2019 09:00:00 10,6 10,0 15 8 - - SW 1004,3 10 0,2
13.06.2019 08:00:00 10,2 9,7 16 9 - - SSW 1004,2 10 0,0
13.06.2019 07:00:00 9,9 9,6 15 8 - - SW 1004,4 8 0,2
13.06.2019 06:00:00 9,8 9,5 13 7 - - SW 1004,7 7 0,2
13.06.2019 05:00:00 9,8 9,5 13 7 - - SW 1004,8 7 0,4
13.06.2019 04:00:00 9,8 9,6 13 7 - - SW 1005,0 5 0,0
13.06.2019 03:00:00 9,8 9,7 9 5 - - SW 1005,5 3,5 0,2
13.06.2019 02:00:00 9,6 9,5 9 5 - - SW 1006,1 5 0,4
13.06.2019 01:00:00 9,7 9,5 9 5 - - SW 1006,7 7 0,4
13.06.2019 00:00:00 10,0 9,9 5 3 - - SSW 1007,3 4,4 0,6
12.06.2019 23:00:00 9,9 9,5 4 2 - - SSW 1007,9 8 0,2
12.06.2019 22:00:00 10,3 10,0 2 1 - - WSW 1008,1 5 0,4
12.06.2019 21:00:00 10,6 10,0 0 0 - - N 1008,2 2,4 0,2
12.06.2019 20:00:00 11,0 10,3 2 1 - - W 1008,1 10 0,2
12.06.2019 19:00:00 11,6 10,8 2 1 - - W 1008,3 10 0,2
12.06.2019 18:00:00 12,0 11,3 4 2 - - N 1008,8 7 0,6
12.06.2019 17:00:00 12,1 11,3 4 2 - - N 1009,3 5 1,2
12.06.2019 16:00:00 12,0 10,4 4 2 - - NE 1009,7 8 1,0
12.06.2019 15:00:00 13,5 10,9 4 2 - - NNE 1009,6 14 0,0
12.06.2019 14:00:00 13,1 9,8 9 5 - - NNE 1009,6 35 0,0
12.06.2019 13:00:00 13,2 10,1 8 4 - - N 1009,9 35 0,0
12.06.2019 12:00:00 13,6 9,9 8 4 - - N 1010,0 45 0,0
12.06.2019 11:00:00 13,2 10,1 8 4 - - NNW 1010,0 40 0,0
12.06.2019 10:00:00 12,2 10,5 4 2 - - WNW 1010,2 35 0,0
12.06.2019 09:00:00 10,6 9,5 2 1 - - NE 1010,6 45 0,0
12.06.2019 08:00:00 9,8 9,7 8 4 - - NNE 1010,7 29 0,0
12.06.2019 07:00:00 9,2 9,2 9 5 - - NNE 1011,0 16 0,0
12.06.2019 06:00:00 8,8 8,8 9 5 - - NNE 1011,2 2,9 0,0
12.06.2019 05:00:00 8,7 8,7 5 3 - - NNE 1011,6 4,5 0,0
12.06.2019 04:00:00 8,7 8,7 8 4 - - N 1011,9 5 0,0
12.06.2019 03:00:00 8,7 8,7 13 7 - - NE 1012,3 3,2 0,0
12.06.2019 02:00:00 8,7 8,7 13 7 - - NE 1012,7 4,3 0,2
12.06.2019 01:00:00 8,7 8,7 13 7 - - NNE 1013,0 4,2 0,0
12.06.2019 00:00:00 8,9 8,8 13 7 - - NNE 1013,5 4,5 0,0
11.06.2019 23:00:00 8,9 8,8 13 7 - - NNE 1013,8 4,3 0,2
11.06.2019 22:00:00 9,0 8,8 15 8 - - NNE 1014,0 3,8 0,0
11.06.2019 21:00:00 9,0 8,8 16 9 - - NNE 1014,0 5 0,0
11.06.2019 20:00:00 9,4 9,1 18 10 46 25 NNE 1013,6 7 0,0
11.06.2019 19:00:00 9,9 9,6 22 12 - - NNE 1013,2 9 0,0
11.06.2019 18:00:00 10,2 9,9 18 10 - - NNE 1013,3 5 0,0
11.06.2019 17:00:00 10,5 9,9 21 11 - - NE 1013,6 6 0,0
11.06.2019 16:00:00 11,2 10,4 22 12 - - NE 1013,2 24 0,2
11.06.2019 15:00:00 10,9 10,6 16 9 - - NNE 1013,3 4,2 0,0
11.06.2019 14:00:00 11,0 10,7 15 8 - - NNE 1013,0 6 0,0
11.06.2019 13:00:00 11,7 11,3 15 8 - - NE 1012,7 8 0,0
11.06.2019 12:00:00 10,9 10,7 13 7 - - NE 1012,5 8 1,4
11.06.2019 11:00:00 11,0 10,8 13 7 - - NE 1012,2 10 0,0
11.06.2019 10:00:00 10,8 10,8 15 8 - - NE 1011,8 9 0,2
11.06.2019 09:00:00 9,9 9,8 15 8 - - NE 1011,9 7 0,6
11.06.2019 08:00:00 9,9 9,7 16 9 - - NE 1011,5 11 0,4
11.06.2019 07:00:00 10,0 10,0 15 8 - - NE 1011,0 19 0,0
11.06.2019 06:00:00 9,7 9,7 16 9 - - NNE 1010,6 3,9 0,2
11.06.2019 05:00:00 9,9 9,9 16 9 - - NE 1010,1 7 0,4
11.06.2019 04:00:00 9,4 9,4 21 11 - - NNE 1009,9 6 0,4
11.06.2019 03:00:00 9,5 9,5 21 11 48 26 NNE 1010,2 10 0,4
11.06.2019 02:00:00 9,6 9,6 18 10 - - NNE 1010,5 10 1,0
11.06.2019 01:00:00 9,2 9,1 22 12 - - NE 1010,9 15 1,0
11.06.2019 00:00:00 9,1 9,0 22 12 - - NNE 1011,4 6 2,6
10.06.2019 23:00:00 8,9 8,8 21 11 46 25 NNE 1011,9 8 2,2
10.06.2019 22:00:00 9,6 9,5 21 11 - - NNE 1012,0 7 0,8
10.06.2019 21:00:00 9,6 9,6 22 12 - - NNE 1011,9 5 0,2
10.06.2019 20:00:00 8,7 8,7 18 10 - - NNE 1012,3 6 0,4
10.06.2019 19:00:00 8,2 8,1 16 9 - - NNE 1012,9 3,2 2,2
10.06.2019 18:00:00 8,2 8,0 18 10 - - N 1013,6 2,8 2,8
10.06.2019 17:00:00 8,3 8,0 13 7 - - NNE 1014,5 6 2,0
10.06.2019 16:00:00 8,6 7,9 15 8 - - NE 1014,6 9 0,6
10.06.2019 15:00:00 9,7 9,3 9 5 - - NE 1014,6 7 1,8
10.06.2019 14:00:00 10,0 9,2 13 7 - - NNE 1015,0 6 1,8
10.06.2019 13:00:00 11,2 10,3 9 5 - - NNE 1015,2 14 0,0
10.06.2019 12:00:00 12,0 10,4 13 7 - - NNE 1015,7 18 0,2

tt = temperature
td = dewpoint
ff = wind speed
fx = gusts
dd = wind direction
ppp = reduced air pressure
vv = visibility
rr = precipitation

Next stations